Zurück zum Katalog

NIMBUS 2 DEB

AktivLEO
NORAD 28617·DEBRIS·🇺🇸 United States

Gestartet May 15, 1966 von Vandenberg Space Force Base

Loading…

Nächste Überflüge (nächste 24 Stunden)

TLE

AktuellSource: Space-Track

Epoche: Sep 13, 2026, 23:28 UTC

1 28617U 66040AG  26256.97823988  .00002572  00000-0  24267-2 0  9994
2 28617 100.4800 146.0912 0042389 183.5149 190.2808 13.81979803207319

Verfolge NIMBUS 2 DEB in Echtzeit mit AllMySat

Download on the App Store